Weather History for PAED - December, 2011

Change the Weather History Date:

Tuesday, December 20, 2011

  Actual Average Record
Temperature  
Mean Temperature 34 °F -  
Max Temperature 41 °F 21 °F 49 °F (1969)
Min Temperature 27 °F 9 °F -20 °F (1961)
Degree Days  
Heating Degree Days 31    
Moisture  
Dew Point 28 °F    
Average Humidity 87    
Maximum Humidity 100    
Minimum Humidity 45    
Precipitation  
Precipitation 0.19 in - - ()
Sea Level Pressure  
Sea Level Pressure 29.53 in    
Wind  
Wind Speed 7 mph (South)    
Max Wind Speed 30 mph    
Max Gust Speed 45 mph    
Visibility 6 miles    
Events Rain , Snow    
Averages and records for this station are not official NWS values.
T = Trace of Precipitation, MM = Missing Value Source: NWS Daily Summary

Daily Weather History Graph

Daily Weather History Graph

Search for Another Location

Airport or City:

Trip Planner

Search our weather history database for the weather conditions in past years. The results will help you decide how hot, cold, wet, or windy it might be!

Date:

Astronomy

Dec. 20, 2011 Rise Set
Actual Time 10:13 AM AKST 3:40 PM AKST
Civil Twilight 9:11 AM AKST 4:42 PM AKST
Nautical Twilight 8:11 AM AKST 5:42 PM AKST
Astronomical Twilight 7:17 AM AKST 6:36 PM AKST
Moon 5:02 AM AKST (12/20) 1:01 PM AKST (12/20)
Length of Visible Light 7h 31m
Length of Day
5h 26m
Waning Crescent, 20% of the Moon is Illuminated
Dec 20
Waning Crescent
Dec 24
New
Dec 31
First Quarter
Jan 8
Full
Jan 16
Last Quarter

Hourly Weather History & Observations

Time (AKST) Temp. Windchill Dew Point Humidity Pressure Visibility Wind Dir Wind Speed Gust Speed Precip Events Conditions
12:00 AM 28.4 °F 22.2 °F 26.6 °F 93% 29.61 in 1.2 mi SSE 5.8 mph - N/A Snow Light Snow
12:04 AM 28.4 °F 24.6 °F 26.6 °F 93% 29.61 in 1.0 mi SSE 3.5 mph - N/A Snow Light Snow
12:05 AM 28.4 °F 23.3 °F 26.6 °F 93% 29.61 in 1.0 mi SSE 4.6 mph - N/A Snow Light Snow
12:09 AM 28.4 °F 23.3 °F 26.6 °F 93% 29.61 in 1.0 mi SSE 4.6 mph - N/A Snow Light Snow
12:11 AM 28.4 °F 24.6 °F 28.4 °F 100% 29.61 in 0.8 mi SSE 3.5 mph - N/A Snow Light Snow
12:13 AM 28.4 °F 23.3 °F 28.4 °F 100% 29.61 in 1.0 mi SSE 4.6 mph - N/A Snow Light Snow
12:17 AM 28.4 °F 23.3 °F 28.4 °F 100% 29.61 in 1.2 mi SSE 4.6 mph - N/A Snow Light Snow
12:19 AM 28.4 °F 23.3 °F 28.4 °F 100% 29.61 in 1.5 mi SSE 4.6 mph - N/A Snow Light Snow
12:21 AM 28.4 °F 23.3 °F 28.4 °F 100% 29.61 in 1.8 mi SE 4.6 mph - N/A Snow Light Snow
12:23 AM 28.4 °F 22.2 °F 28.4 °F 100% 29.61 in 2.0 mi SE 5.8 mph - N/A Snow Light Snow
12:28 AM 28.4 °F 22.2 °F 28.4 °F 100% 29.61 in 1.8 mi SE 5.8 mph - N/A Snow Light Snow
12:30 AM 28.4 °F 24.6 °F 28.4 °F 100% 29.61 in 1.8 mi SE 3.5 mph - N/A Snow Light Snow
12:34 AM 30.2 °F - 28.4 °F 93% 29.61 in 1.8 mi Calm Calm - N/A Snow Light Snow
12:36 AM 30.2 °F 25.4 °F 28.4 °F 93% 29.61 in 2.0 mi SE 4.6 mph - N/A Snow Light Snow
12:40 AM 30.2 °F 25.4 °F 28.4 °F 93% 29.61 in 3.0 mi ESE 4.6 mph - N/A Snow Light Snow
12:43 AM 30.2 °F 26.7 °F 28.4 °F 93% 29.61 in 4.0 mi ESE 3.5 mph - N/A Snow Light Snow
12:55 AM 29.5 °F - 28.8 °F 97% 29.62 in 10.0 mi Calm Calm - 0.01 in   Overcast
12:56 AM 30.2 °F - 28.4 °F 93% 29.62 in 10.0 mi Calm Calm - N/A   Light Freezing Drizzle
12:58 AM 30.2 °F - 28.4 °F 93% 29.62 in 9.0 mi Calm Calm - N/A   Light Freezing Drizzle
12:59 AM 30.2 °F - 28.4 °F 93% 29.62 in 9.0 mi Calm Calm - N/A   Light Freezing Drizzle
1:00 AM 30.2 °F - 28.4 °F 93% 29.62 in 9.0 mi Calm Calm - N/A   Light Freezing Drizzle
1:02 AM 30.2 °F - 28.4 °F 93% 29.62 in 9.0 mi Calm Calm - N/A   Light Freezing Drizzle
1:19 AM 30.2 °F 23.4 °F 28.4 °F 93% 29.63 in 10.0 mi SSW 6.9 mph - N/A   Overcast
1:39 AM 32.0 °F 24.8 °F 28.4 °F 87% 29.63 in 10.0 mi SSW 8.1 mph - N/A   Overcast
1:40 AM 32.0 °F 23.6 °F 28.4 °F 87% 29.63 in 10.0 mi SSW 10.4 mph - N/A   Overcast
1:55 AM 31.6 °F 21.6 °F 28.0 °F 87% 29.64 in 5.0 mi South 13.8 mph - 0.01 in   Overcast
2:37 AM 32.0 °F 19.8 °F 30.2 °F 93% 29.66 in 3.0 mi South 20.7 mph - N/A Snow Light Snow
2:55 AM 32.2 °F 19.7 °F 28.2 °F 85% 29.67 in 8.0 mi SSW 21.9 mph - 0.01 in   Overcast
3:14 AM 32.0 °F 19.5 °F 28.4 °F 87% 29.69 in 7.0 mi SSW 21.9 mph 31.1 mph N/A   Light Drizzle
3:47 AM 32.0 °F 21.2 °F 28.4 °F 87% 29.72 in 10.0 mi SSW 16.1 mph - N/A   Overcast
3:55 AM 31.6 °F 20.0 °F 27.5 °F 85% 29.72 in 10.0 mi SSW 18.4 mph - 0.00 in   Overcast
4:28 AM 32.0 °F 21.2 °F 26.6 °F 80% 29.73 in 10.0 mi SSW 16.1 mph - N/A   Overcast
4:52 AM 32.0 °F 20.8 °F 26.6 °F 80% 29.75 in 10.0 mi SW 17.3 mph - N/A   Overcast
4:55 AM 32.0 °F 21.6 °F 27.0 °F 82% 29.75 in 10.0 mi SSW 15.0 mph - N/A   Overcast
5:55 AM 32.5 °F 24.8 °F 24.4 °F 72% 29.77 in 10.0 mi South 9.2 mph - 0.01 in   Overcast
6:31 AM 32.0 °F 24.8 °F 21.2 °F 64% 29.78 in 10.0 mi South 8.1 mph - N/A   Mostly Cloudy
6:32 AM 32.0 °F 24.8 °F 21.2 °F 64% 29.78 in 10.0 mi South 8.1 mph - N/A   Mostly Cloudy
6:39 AM 30.2 °F 22.6 °F 21.2 °F 69% 29.78 in 10.0 mi South 8.1 mph - N/A   Scattered Clouds
6:55 AM 28.9 °F 22.8 °F 20.1 °F 70% 29.78 in 10.0 mi South 5.8 mph - N/A   Partly Cloudy
7:55 AM 27.0 °F - 17.1 °F 66% 29.78 in 10.0 mi Calm Calm - N/A   Clear
8:55 AM 28.6 °F 21.5 °F 17.6 °F 64% 29.76 in 10.0 mi NE 6.9 mph - N/A   Clear
9:55 AM 30.9 °F 27.5 °F 16.3 °F 55% 29.75 in 10.0 mi NE 3.5 mph - N/A   Clear
10:55 AM 27.9 °F 24.0 °F 19.2 °F 70% 29.73 in 10.0 mi NNW 3.5 mph - N/A   Clear
11:55 AM 32.0 °F 27.5 °F 17.1 °F 54% 29.69 in 10.0 mi ENE 4.6 mph - N/A   Partly Cloudy
12:55 PM 34.9 °F 27.7 °F 19.2 °F 53% 29.60 in 10.0 mi SSW 9.2 mph - N/A   Partly Cloudy
1:55 PM 38.7 °F 30.9 °F 19.8 °F 47% 29.56 in 10.0 mi SSW 12.7 mph 17.3 mph N/A   Mostly Cloudy
2:50 PM 41.0 °F 31.1 °F 21.2 °F 45% 29.49 in 10.0 mi SE 23.0 mph 38.0 mph N/A   Partly Cloudy
2:55 PM 40.8 °F 32.9 °F 21.7 °F 47% 29.49 in 10.0 mi SSW 15.0 mph 36.8 mph N/A   Partly Cloudy
2:56 PM 41.0 °F 33.1 °F 21.2 °F 45% 29.48 in 10.0 mi SSW 15.0 mph 36.8 mph N/A   Partly Cloudy
3:55 PM 41.2 °F 30.1 °F 22.3 °F 47% 29.41 in 10.0 mi SSE 29.9 mph 44.9 mph 0.01 in   Clear
4:55 PM 41.2 °F 30.5 °F 23.4 °F 49% 29.39 in 10.0 mi South 27.6 mph 42.6 mph 0.01 in   Clear
5:55 PM 41.5 °F 31.9 °F 24.3 °F 50% 29.38 in 10.0 mi South 23.0 mph 32.2 mph N/A   Clear
6:55 PM 33.3 °F 21.5 °F 26.1 °F 75% 29.37 in 10.0 mi NW 20.7 mph 31.1 mph N/A   Mostly Cloudy
7:55 PM 33.6 °F 23.3 °F 30.0 °F 87% 29.36 in 10.0 mi North 16.1 mph - N/A   Overcast
8:46 PM 33.8 °F 22.8 °F 30.2 °F 87% 29.35 in 10.0 mi North 18.4 mph - N/A   Overcast
8:55 PM 33.4 °F 22.7 °F 31.1 °F 91% 29.35 in 10.0 mi North 17.3 mph - 0.00 in Rain Light Rain
9:44 PM 33.8 °F 26.4 °F 32.0 °F 93% 29.38 in 2.5 mi WNW 9.2 mph - N/A Snow Light Snow
9:46 PM 33.8 °F 25.3 °F 32.0 °F 93% 29.38 in 2.0 mi West 11.5 mph - N/A Snow Light Snow
9:48 PM 33.8 °F 25.3 °F 32.0 °F 93% 29.38 in 1.8 mi West 11.5 mph - N/A Snow Light Snow
9:49 PM 33.8 °F 25.3 °F 32.0 °F 93% 29.37 in 1.8 mi West 11.5 mph - N/A Snow Light Snow
9:51 PM 33.8 °F 25.8 °F 32.0 °F 93% 29.38 in 1.5 mi WNW 10.4 mph - N/A Snow Light Snow
9:52 PM 32.0 °F 23.6 °F 32.0 °F 100% 29.38 in 1.5 mi WNW 10.4 mph - N/A Snow Light Snow
9:54 PM 32.0 °F 24.8 °F 32.0 °F 100% 29.37 in 1.8 mi WNW 8.1 mph - N/A Snow Light Snow
9:55 PM 32.7 °F 25.7 °F 31.8 °F 96% 29.38 in 1.8 mi WNW 8.1 mph - 0.00 in Snow Light Snow
9:57 PM 32.0 °F 24.8 °F 32.0 °F 100% 29.38 in 2.0 mi WNW 8.1 mph - N/A Snow Light Snow
10:03 PM 32.0 °F 25.6 °F 32.0 °F 100% 29.37 in 3.0 mi NW 6.9 mph - N/A Snow Light Snow
10:04 PM 32.0 °F 24.8 °F 32.0 °F 100% 29.37 in 3.0 mi NW 8.1 mph - N/A Snow Light Snow
10:05 PM 32.0 °F 25.6 °F 32.0 °F 100% 29.37 in 2.5 mi NW 6.9 mph - N/A Snow Light Snow
10:08 PM 32.0 °F 27.5 °F 32.0 °F 100% 29.37 in 2.5 mi NNW 4.6 mph - N/A Snow Light Snow
10:15 PM 33.8 °F 27.0 °F 32.0 °F 93% 29.37 in 2.5 mi NNW 8.1 mph - N/A Snow Light Snow
10:17 PM 33.8 °F 28.6 °F 32.0 °F 93% 29.37 in 3.0 mi NW 5.8 mph - N/A Snow Light Snow
10:22 PM 32.0 °F 26.4 °F 32.0 °F 100% 29.37 in 4.0 mi NNW 5.8 mph - N/A Snow Light Snow
10:27 PM 32.0 °F 26.4 °F 32.0 °F 100% 29.37 in 4.0 mi NNW 5.8 mph - N/A Snow Light Snow
10:37 PM 32.0 °F - 32.0 °F 100% 29.37 in 4.0 mi Calm Calm - N/A Snow Light Snow
10:45 PM 33.8 °F - 32.0 °F 93% 29.37 in 2.5 mi Calm Calm - N/A Snow Light Snow
10:46 PM 32.0 °F - 32.0 °F 100% 29.37 in 2.5 mi Calm Calm - N/A Snow Light Snow
10:50 PM 32.0 °F 28.7 °F 32.0 °F 100% 29.37 in 2.0 mi East 3.5 mph - N/A Snow Light Snow
10:52 PM 32.0 °F 25.6 °F 32.0 °F 100% 29.37 in 2.0 mi East 6.9 mph - N/A Snow Light Snow
10:54 PM 32.0 °F 25.6 °F 32.0 °F 100% 29.37 in 2.0 mi East 6.9 mph - N/A Snow Light Snow
10:55 PM 32.5 °F 26.2 °F 32.4 °F 99% 29.37 in 2.0 mi East 6.9 mph - 0.09 in Snow Light Snow
11:04 PM 32.0 °F 28.7 °F 32.0 °F 100% 29.37 in 1.8 mi ESE 3.5 mph - N/A Snow Light Snow
11:12 PM 32.0 °F 27.5 °F 32.0 °F 100% 29.37 in 1.8 mi East 4.6 mph - N/A Snow Light Snow
11:14 PM 32.0 °F 26.4 °F 32.0 °F 100% 29.37 in 2.0 mi East 5.8 mph - N/A Snow Light Snow
11:21 PM 32.0 °F 27.5 °F 32.0 °F 100% 29.37 in 2.0 mi East 4.6 mph - N/A Snow Light Snow
11:22 PM 32.0 °F 28.7 °F 32.0 °F 100% 29.37 in 2.5 mi East 3.5 mph - N/A Snow Light Snow
11:25 PM 32.0 °F - 32.0 °F 100% 29.37 in 3.0 mi Calm Calm - N/A Snow Light Snow
11:45 PM 32.0 °F 28.7 °F 32.0 °F 100% 29.37 in 9.0 mi NE 3.5 mph - N/A Snow Light Snow
11:49 PM 32.0 °F - 32.0 °F 100% 29.37 in 10.0 mi Calm Calm - N/A   Overcast
11:55 PM 32.7 °F - 32.5 °F 99% 29.37 in 10.0 mi Calm Calm - 0.04 in   Overcast